Tracking 32422 objects as of 7-Dec-2025
HD Live streaming from Space Station
objects crossing your sky now

SES 22

Track SES 22 now!


NORAD ID: 52933
Int'l Code: 2022-071A
Perigee: 35,787.8 km
Apogee: 35,799.2 km
Inclination: 0.0 °
Period: 1,436.1 minutes
Semi major axis: 42164 km
RCS: Unknown
Launch date: June 29, 2022
Source: SOCIETE EUROPEENNE DES SATELLITES (SES)
Launch site: AIR FORCE EASTERN TEST RANGE (AFETR)
Your satellite tracking list
Your tracking list is empty




NASA's NSSDC Master Catalog

Two Line Element Set (TLE):
1 52933U 22071A   25340.68456995  .00000111  00000-0  00000-0 0  9993
2 52933   0.0304  59.8220 0001350 206.2229 277.1182  1.00272626  5592
Source of the keplerian elements: AFSPC